FW2178 Weather Reports


Display with metric or nautical units.
time (UTC)temp
F
wind
direction
speed
MPH
gust
MPH
rain 1hr
in
rain 24hr
in
rain mn
in
humidity
%
barometer
mb
20260504233203 76 149 0.0 2.0 0.00 0.00 0.00 44 1007.7
20260504232709 76 144 0.0 0.0 0.00 0.00 0.00 45 1008.0
20260504232208 76 158 0.0 0.0 0.00 0.00 0.00 46 1008.0
20260504231704 76 145 0.0 0.0 0.00 0.00 0.00 46 1007.9
20260504231203 77 140 0.0 0.0 0.00 0.00 0.00 49 1007.9
20260504230955 77 165 0.0 0.0 0.00 0.00 0.00 43 1007.9
20260504230202 77 146 0.0 0.0 0.00 0.00 0.00 46 1007.9
20260504225949 77 136 0.0 0.0 0.00 0.00 0.00 45 1008.0
20260504225203 77 149 0.0 0.0 0.00 0.00 0.00 44 1008.1
20260504224954 77 137 0.0 0.0 0.00 0.00 0.00 43 1008.1
20260504224203 77 163 0.0 0.0 0.00 0.00 0.00 44 1008.0
20260504223702 77 137 0.0 0.0 0.00 0.00 0.00 44 1008.1
20260504223512 77 146 0.0 0.0 0.00 0.00 0.00 45 1008.3
20260504222702 76 65 0.0 0.0 0.00 0.00 0.00 44 1008.4
20260504222202 77 106 0.0 0.0 0.00 0.00 0.00 42 1008.3
20260504221705 76 37 0.0 0.0 0.00 0.00 0.00 44 1008.6
20260504221203 77 152 0.0 0.0 0.00 0.00 0.00 45 1008.8
20260504220702 77 134 0.0 0.0 0.00 0.00 0.00 45 1008.7
20260504220209 76 136 0.0 0.0 0.00 0.00 0.00 43 1008.6
20260504215701 76 141 0.0 0.0 0.00 0.00 0.00 46 1008.6
20260504215202 76 131 0.0 0.0 0.00 0.00 0.00 41 1008.7
20260504214705 76 265 0.0 0.0 0.00 0.00 0.00 43 1008.7
20260504214202 76 147 0.0 0.0 0.00 0.00 0.00 43 1008.6
20260504213947 76 150 0.0 0.0 0.00 0.00 0.00 42 1008.7
20260504213204 76 158 0.0 0.0 0.00 0.00 0.00 41 1008.8
20260504212702 76 142 0.0 0.0 0.00 0.00 0.00 41 1008.9
20260504212202 76 148 0.0 0.0 0.00 0.00 0.00 41 1008.7
20260504211704 76 169 0.0 0.0 0.00 0.00 0.00 40 1008.8
20260504211447 76 136 0.0 0.0 0.00 0.00 0.00 39 1008.9
20260504210702 76 135 0.0 0.0 0.00 0.00 0.00 40 1008.9
20260504210205 76 164 0.0 0.0 0.00 0.00 0.00 40 1008.9
20260504205955 76 140 0.0 0.0 0.00 0.00 0.00 40 1008.9
20260504205202 76 144 0.0 0.0 0.00 0.00 0.00 39 1009.0
20260504204705 76 173 0.0 0.0 0.00 0.00 0.00 38 1009.2
20260504204203 75 149 0.0 0.0 0.00 0.00 0.00 39 1008.9
20260504203703 75 153 0.0 0.0 0.00 0.00 0.00 38 1009.1
20260504203207 75 146 0.0 0.0 0.00 0.00 0.00 38 1009.1
20260504202705 75 141 0.0 0.0 0.00 0.00 0.00 38 1008.9
20260504202455 75 142 0.0 0.0 0.00 0.00 0.00 40 1008.9
20260504201702 75 141 0.0 0.0 0.00 0.00 0.00 41 1009.2
20260504201204 76 157 0.0 0.0 0.00 0.00 0.00 40 1009.0
20260504200705 75 152 0.0 0.0 0.00 0.00 0.00 42 1009.0
20260504200457 75 170 0.0 0.0 0.00 0.00 0.00 43 1008.9
20260504195703 75 148 0.0 0.0 0.00 0.00 0.00 43 1009.0
20260504195205 75 159 0.0 0.0 0.00 0.00 0.00 44 1009.1
20260504194702 75 154 0.0 0.0 0.00 0.00 0.00 44 1009.0
20260504194203 75 69 0.0 0.0 0.00 0.00 0.00 43 1009.0
20260504193704 75 143 0.0 0.0 0.00 0.00 0.00 43 1009.0
20260504193244 74 117 0.0 0.0 0.00 0.00 0.00 42 1008.9
20260504192201 74 140 0.0 0.0 0.00 0.00 0.00 43 1009.1
20260504191705 74 133 0.0 0.0 0.00 0.00 0.00 41 1009.0
20260504191201 74 145 0.0 0.0 0.00 0.00 0.00 42 1009.2
20260504190702 73 159 0.0 0.0 0.00 0.00 0.00 45 1009.0
20260504190204 73 164 0.0 0.0 0.00 0.00 0.00 44 1009.4
20260504185702 73 156 0.0 0.0 0.00 0.00 0.00 48 1008.9
20260504185202 73 129 0.0 0.0 0.00 0.00 0.00 46 1009.1
20260504184705 72 166 0.0 0.0 0.00 0.00 0.00 47 1009.4
20260504184202 72 139 0.0 0.0 0.00 0.00 0.00 45 1009.5
20260504183952 72 194 0.0 0.0 0.00 0.00 0.00 50 1009.3
20260504183202 71 151 0.0 0.0 0.00 0.00 0.00 48 1009.2
20260504183015 71 142 0.0 0.0 0.00 0.00 0.00 48 1009.5
20260504182202 71 123 0.0 0.0 0.00 0.00 0.00 47 1009.6
20260504181703 71 149 0.0 0.0 0.00 0.00 0.00 49 1009.4
20260504181453 71 173 0.0 0.0 0.00 0.00 0.00 47 1009.3
20260504181000 70 193 0.0 0.0 0.00 0.00 0.00 48 1009.3
20260504180202 71 168 0.0 0.0 0.00 0.00 0.00 56 1009.4
20260504175703 70 142 0.0 0.0 0.00 0.00 0.00 49 1009.4
20260504175206 70 165 0.0 0.0 0.00 0.00 0.00 54 1009.2
20260504174702 70 138 0.0 0.0 0.00 0.00 0.00 50 1009.3
20260504174202 70 148 0.0 0.0 0.00 0.00 0.00 51 1009.2
20260504173705 70 159 0.0 0.0 0.00 0.00 0.00 47 1009.2
20260504173206 69 135 0.0 0.0 0.00 0.00 0.00 58 1009.3
20260504172705 68 154 0.0 0.0 0.00 0.00 0.00 59 1009.2
20260504172205 68 151 0.0 0.0 0.00 0.00 0.00 64 1009.2
20260504171747 68 142 0.0 0.0 0.00 0.00 0.00 61 1009.5
20260504171729 68 138 0.0 0.0 0.00 0.00 0.00 60 1009.3
20260504170946 67 145 0.0 0.0 0.00 0.00 0.00 63 1009.4
20260504170205 67 145 0.0 0.0 0.00 0.00 0.00 64 1009.5
20260504160203 59 148 0.0 0.0 0.00 0.00 0.00 86 1009.0
20260504150702 54 134 0.0 0.0 0.00 0.00 0.00 92 1008.9
20260504150201 53 134 0.0 0.0 0.00 0.00 0.00 93 1008.9
20260504141204 50 134 0.0 0.0 0.00 0.00 0.00 95 1008.5
20260504140702 50 134 0.0 0.0 0.00 0.00 0.00 95 1008.6
20260504140504 50 134 0.0 0.0 0.00 0.00 0.00 95 1008.5
20260504130703 49 135 0.0 0.0 0.00 0.00 0.00 96 1008.4
20260504130205 49 135 0.0 0.0 0.00 0.00 0.00 95 1008.2
20260504120204 50 136 0.0 0.0 0.00 0.00 0.00 93 1008.1
20260504110703 50 135 0.0 0.0 0.00 0.00 0.00 92 1008.3
20260504110202 51 135 0.0 0.0 0.00 0.00 0.00 92 1008.1
20260504100203 51 139 0.0 0.0 0.00 0.00 0.00 91 1007.9
20260504081701 53 140 0.0 0.0 0.00 0.00 0.00 85 1008.2
20260504081207 53 140 0.0 0.0 0.00 0.00 0.00 84 1008.1
20260504080702 53 140 0.0 0.0 0.00 0.00 0.00 84 1008.1
20260504080202 53 140 0.0 0.0 0.00 0.00 0.00 83 1008.3
20260504070202 56 107 0.0 0.0 0.00 0.00 0.00 80 1008.1
20260504060203 57 155 0.0 0.0 0.00 0.00 0.00 76 1008.5
20260504050706 59 156 0.0 0.0 0.00 0.00 0.00 70 1008.5
20260504050204 60 156 0.0 0.0 0.00 0.00 0.00 70 1008.0
20260504045703 60 156 0.0 0.0 0.00 0.00 0.00 70 1008.2
20260504045208 60 156 0.0 0.0 0.00 0.00 0.00 71 1008.1
20260504045009 60 156 0.0 0.0 0.00 0.00 0.00 72 1007.9
20260504044204 60 156 0.0 0.0 0.00 0.00 0.00 71 1008.0
20260504043704 61 156 0.0 0.0 0.00 0.00 0.00 72 1008.1
20260504043205 61 156 0.0 0.0 0.00 0.00 0.00 71 1008.0
20260504042703 61 156 0.0 0.0 0.00 0.00 0.00 71 1008.0
20260504042450 62 156 0.0 0.0 0.00 0.00 0.00 68 1008.0
20260504041705 62 156 0.0 0.0 0.00 0.00 0.00 71 1008.0
20260504041207 62 156 0.0 0.0 0.00 0.00 0.00 70 1008.2
20260504040705 62 156 0.0 0.0 0.00 0.00 0.00 69 1008.1
20260504040207 62 156 0.0 0.0 0.00 0.00 0.00 69 1008.2
20260504035704 62 156 0.0 0.0 0.00 0.00 0.00 71 1008.1
20260504035204 63 156 0.0 0.0 0.00 0.00 0.00 71 1007.9
20260504034706 63 156 0.0 0.0 0.00 0.00 0.00 71 1007.9
20260504034456 63 156 0.0 0.0 0.00 0.00 0.00 73 1007.8
20260504033703 63 156 0.0 0.0 0.00 0.00 0.00 71 1008.0
20260504033208 64 156 0.0 0.0 0.00 0.00 0.00 71 1008.1
20260504032953 64 155 0.0 0.0 0.00 0.00 0.00 71 1007.9
20260504032204 64 155 0.0 0.0 0.00 0.00 0.00 73 1008.1
20260504031708 64 155 0.0 0.0 0.00 0.00 0.00 71 1007.9
20260504031203 64 155 0.0 0.0 0.00 0.00 0.00 74 1007.8
20260504030704 65 155 0.0 0.0 0.00 0.00 0.00 72 1007.8
20260504030206 65 155 0.0 0.0 0.00 0.00 0.00 72 1007.8
20260504025703 65 155 0.0 0.0 0.00 0.00 0.00 71 1007.8
20260504025204 65 155 0.0 0.0 0.00 0.00 0.00 71 1007.9
20260504024707 65 155 0.0 0.0 0.00 0.00 0.00 70 1007.7
20260504024205 66 155 0.0 0.0 0.00 0.00 0.00 72 1007.9
20260504023733 66 154 0.0 0.0 0.00 0.00 0.00 74 1007.9
20260504022704 67 154 0.0 0.0 0.00 0.00 0.00 68 1008.1
20260504022205 67 154 0.0 0.0 0.00 0.00 0.00 68 1008.2
20260504021706 67 154 0.0 0.0 0.00 0.00 0.00 70 1007.8
20260504021204 67 155 0.0 0.0 0.00 0.00 0.00 70 1007.8
20260504020704 67 154 0.0 0.0 0.00 0.00 0.00 68 1008.0
20260504020206 68 154 0.0 0.0 0.00 0.00 0.00 68 1008.0
20260504015705 68 154 0.0 0.0 0.00 0.00 0.00 66 1008.1
20260504015204 69 154 0.0 0.0 0.00 0.00 0.00 63 1008.0
20260504014705 69 145 0.0 0.0 0.00 0.00 0.00 64 1008.1
20260504014202 70 154 0.0 0.0 0.00 0.00 0.00 62 1008.3
20260504013702 70 152 0.0 0.0 0.00 0.00 0.00 65 1008.2
20260504013208 71 150 0.0 0.0 0.00 0.00 0.00 63 1008.0
20260504012702 71 140 0.0 0.0 0.00 0.00 0.00 59 1008.0
20260504012452 71 159 0.0 0.0 0.00 0.00 0.00 62 1008.2
20260504011702 71 154 0.0 0.0 0.00 0.00 0.00 63 1008.3
20260504011509 71 128 0.0 0.0 0.00 0.00 0.00 57 1008.3
20260504010706 71 148 0.0 0.0 0.00 0.00 0.00 63 1008.3
20260504010206 71 148 0.0 0.0 0.00 0.00 0.00 61 1008.4
20260504005745 73 148 0.0 0.0 0.00 0.00 0.00 60 1008.3
20260504005727 72 148 0.0 0.0 0.00 0.00 0.00 57 1008.4
20260504004702 72 148 0.0 0.0 0.00 0.00 0.00 60 1008.5
20260504004203 73 122 0.0 0.0 0.00 0.00 0.00 55 1008.6
20260504003702 73 156 0.0 0.0 0.00 0.00 0.00 57 1008.5
20260504003203 74 161 0.0 0.0 0.00 0.00 0.00 56 1008.3
20260504002949 74 158 0.0 0.0 0.00 0.00 0.00 58 1008.5
20260504002202 74 140 0.0 0.0 0.00 0.00 0.00 55 1008.5
20260504001703 74 115 0.0 0.0 0.00 0.00 0.00 45 1008.6
20260504001205 73 130 0.0 0.0 0.00 0.00 0.00 53 1008.4
20260504000950 73 149 0.0 0.0 0.00 0.00 0.00 55 1008.6
20260504000204 74 129 0.0 0.0 0.00 0.00 0.00 53 1008.7
20260503235702 74 154 0.0 0.0 0.00 0.00 0.00 55 1008.7
20260503235202 74 166 0.0 0.0 0.00 0.00 0.00 58 1008.9
20260503234702 75 126 0.0 0.0 0.00 0.00 0.00 54 1008.7
20260503234203 75 158 0.0 0.0 0.00 0.00 0.00 51 1008.6
20260503233702 74 140 0.0 1.0 0.00 0.00 0.00 51 1008.8